Track STARLINK-1645 now! 10-day predictions STARLINK-1645 is classified as:
1 47622U 21012C 22183.66669330 .00000345 00000-0 42074-4 0 9995 2 47622 53.0568 354.1454 0001459 67.6984 292.4159 15.06410097 76597